Moab, UT

5:43 PM MST on November 11, 2019 (GMT -0700)
Canyonlands

Weather History for KCNY - May, 2019

Change the Weather History Date:

Tuesday, May 21, 2019

  Actual Average Record
Temperature  
Mean Temperature 49 °F 64 °F  
Max Temperature 60 °F 81 °F 99 °F (1934)
Min Temperature 37 °F 48 °F 36 °F (1931)
Degree Days  
Heating Degree Days 16 3  
Month to date heating degree days 162 112  
Since 1 July heating degree days 5732 5537  
Cooling Degree Days 0 2  
Month to date cooling degree days 12 25  
Year to date cooling degree days 14 28  
Moisture  
Dew Point 37 °F    
Average Humidity 64    
Maximum Humidity 92    
Minimum Humidity 36    
Precipitation  
Precipitation 0.03 in 0.02 in 0.43 in (1975)
Month to date precipitation 0.12 0.43  
Year to date precipitation 5.11 3.05  
Sea Level Pressure  
Sea Level Pressure 29.55 in    
Wind  
Wind Speed 7 mph (WSW)    
Max Wind Speed 31 mph    
Max Gust Speed 42 mph    
Visibility 10 miles    
Events Rain    
T = Trace of Precipitation, MM = Missing Value Source: NWS Daily Summary

Daily Weather History Graph

Daily Weather History Graph

Search for Another Location

Airport or City:

Astronomy

May. 21, 2019 Rise Set
Actual Time 6:02 AM MDT 8:29 PM MDT
Civil Twilight 5:31 AM MDT 9:00 PM MDT
Nautical Twilight 4:54 AM MDT 9:37 PM MDT
Astronomical Twilight 4:12 AM MDT 10:19 PM MDT
Moon 11:27 PM MDT (5/21) 8:21 AM MDT (5/21)
Length of Visible Light 15h 28m
Length of Day
14h 27m
Waning Gibbous, 91% of the Moon is Illuminated
May 21
Waning Gibbous
May 26
Last Quarter
Jun 3
New
Jun 10
First Quarter
Jun 17
Full

Hourly Weather History & Observations

Time (MDT) Temp. Windchill Dew Point Humidity Pressure Visibility Wind Dir Wind Speed Gust Speed Precip Events Conditions
12:53 AM 45.0 °F 43.5 °F 39.0 °F 80% 29.64 in 10.0 mi SE 3.5 mph - N/A   Scattered Clouds
1:53 AM 43.0 °F - 39.0 °F 86% 29.63 in 10.0 mi Calm Calm - N/A   Clear
2:53 AM 42.1 °F 39.2 °F 37.0 °F 82% 29.62 in 10.0 mi West 4.6 mph - N/A   Clear
3:53 AM 39.9 °F 37.8 °F 36.0 °F 86% 29.62 in 10.0 mi West 3.5 mph - N/A   Clear
4:53 AM 37.9 °F 33.5 °F 35.1 °F 89% 29.63 in 10.0 mi WSW 5.8 mph - N/A   Clear
5:53 AM 39.9 °F - 35.1 °F 83% 29.64 in 10.0 mi Calm Calm - N/A   Clear
6:53 AM 37.9 °F - 35.1 °F 89% 29.65 in 10.0 mi Calm Calm - N/A   Clear
7:53 AM 46.0 °F - 37.9 °F 73% 29.63 in 10.0 mi Calm Calm - N/A   Clear
8:53 AM 50.0 °F - 37.9 °F 63% 29.61 in 10.0 mi West 3.5 mph - N/A   Overcast
9:53 AM 54.0 °F - 37.0 °F 53% 29.58 in 10.0 mi Variable 3.5 mph - N/A   Scattered Clouds
10:53 AM 54.0 °F - 36.0 °F 51% 29.56 in 10.0 mi NW 4.6 mph - N/A   Mostly Cloudy
11:53 AM 55.0 °F - 32.0 °F 42% 29.53 in 10.0 mi South 6.9 mph - N/A   Overcast
12:53 PM 59.0 °F - 32.0 °F 36% 29.49 in 10.0 mi Variable 3.5 mph - 0.00 in   Mostly Cloudy
1:53 PM 57.9 °F - 30.0 °F 35% 29.47 in 10.0 mi Calm Calm - N/A   Overcast
2:53 PM 57.9 °F - 32.0 °F 37% 29.45 in 10.0 mi NNW 11.5 mph - 0.00 in   Overcast
3:15 PM 55.9 °F - 39.0 °F 53% 29.53 in 10.0 mi West 21.9 mph 33.4 mph 0.01 in Rain Light Rain
3:53 PM 51.1 °F - 39.9 °F 66% 29.50 in 10.0 mi SSW 23.0 mph 40.3 mph 0.01 in   Partly Cloudy
4:53 PM 52.0 °F - 41.0 °F 66% 29.50 in 10.0 mi SW 8.1 mph - 0.02 in   Mostly Cloudy
5:53 PM 53.1 °F - 39.9 °F 61% 29.49 in 10.0 mi West 17.3 mph - N/A   Mostly Cloudy
6:53 PM 54.0 °F - 34.0 °F 47% 29.48 in 10.0 mi SW 13.8 mph - N/A   Mostly Cloudy
7:40 PM 51.1 °F - 37.9 °F 61% 29.55 in 10.0 mi WNW 20.7 mph - N/A   Mostly Cloudy
7:53 PM 50.0 °F - 37.9 °F 63% 29.50 in 10.0 mi WNW 15.0 mph - N/A   Mostly Cloudy
8:53 PM 46.9 °F - 37.9 °F 71% 29.50 in 10.0 mi NW 6.9 mph - N/A   Mostly Cloudy
9:53 PM 46.0 °F - 39.0 °F 76% 29.52 in 10.0 mi Calm Calm - N/A   Overcast
10:53 PM 46.0 °F 40.6 °F 37.0 °F 71% 29.52 in 10.0 mi SW 11.5 mph - N/A   Overcast
11:53 PM 45.0 °F 43.5 °F 37.9 °F 76% 29.53 in 10.0 mi South 3.5 mph - N/A   Mostly Cloudy